Weather History for Whiteman AFB, MO

Change the Weather History Date:

Tuesday, December 11, 2012

  Actual Average Record
Temperature  
Mean Temperature -1 °C -  
Max Temperature 6 °C 6 °C 16 °C (1996)
Min Temperature -8 °C -3 °C -16 °C (2000)
Degree Days  
Heating Degree Days 35    
Moisture  
Dew Point -8 °C    
Average Humidity 63    
Maximum Humidity 87    
Minimum Humidity 39    
Precipitation  
Precipitation 0.00 mm - - ()
Sea Level Pressure  
Sea Level Pressure 1020 hPa    
Wind  
Wind Speed 14 km/h (SW)    
Max Wind Speed 21 km/h    
Max Gust Speed -    
Visibility 16 kilometers    
Events      
Averages and records for this station are not official NWS values.
T = Trace of Precipitation, MM = Missing Value Source: NWS Daily Summary

Daily Weather History Graph

Daily Weather History Graph

Search for Another Location

Airport:

Trip Planner

Search our weather history database for the weather conditions in past years. The results will help you decide how hot, cold, wet, or windy it might be!

Date:

Astronomy

Dec. 11, 2012 Rise Set
Actual Time 7:22 AM CST 4:52 PM CST
Civil Twilight 6:52 AM CST 5:22 PM CST
Nautical Twilight 6:19 AM CST 5:55 PM CST
Astronomical Twilight 5:47 AM CST 6:28 PM CST
Moon 5:18 AM CST (12/11) 3:32 PM CST (12/11)
Length of Visible Light 10h 29m
Length of Day
9h 30m
Waning Crescent, 4% of the Moon is Illuminated
Dec 11
Waning Crescent
Dec 13
New
Dec 19
First Quarter
Dec 28
Full
Jan 4
Last Quarter

Hourly Weather History & Observations

Time (CST) Temp. Windchill Dew Point Humidity Pressure Visibility Wind Dir Wind Speed Gust Speed Precip Events Conditions
12:55 AM -8.2 °C -14.5 °C -10.1 °C 86% 1018.2 hPa 16.1 km South 14.8 km/h / 4.1 m/s - N/A   Clear
1:55 AM -7.8 °C -13.0 °C -9.9 °C 85% 1018.0 hPa 16.1 km SSW 11.1 km/h / 3.1 m/s - N/A   Clear
2:55 AM -7.6 °C -13.7 °C -9.4 °C 87% 1018.2 hPa 16.1 km South 14.8 km/h / 4.1 m/s - N/A   Clear
3:55 AM -6.1 °C -13.0 °C -8.9 °C 81% 1018.3 hPa 16.1 km SW 20.4 km/h / 5.7 m/s - N/A   Clear
4:55 AM -5.7 °C -11.8 °C -9.8 °C 73% 1018.2 hPa 16.1 km SW 16.7 km/h / 4.6 m/s - N/A   Clear
5:55 AM -6.0 °C -11.7 °C -10.4 °C 72% 1018.3 hPa 16.1 km SW 14.8 km/h / 4.1 m/s - N/A   Clear
6:55 AM -6.8 °C -12.7 °C -10.5 °C 75% 1018.9 hPa 16.1 km SSW 14.8 km/h / 4.1 m/s - N/A   Clear
7:55 AM -5.8 °C -11.1 °C -10.5 °C 70% 1019.1 hPa 16.1 km WSW 13.0 km/h / 3.6 m/s - N/A   Clear
8:55 AM -3.2 °C -7.9 °C -10.6 °C 57% 1019.8 hPa 16.1 km WSW 13.0 km/h / 3.6 m/s - N/A   Clear
9:55 AM -0.9 °C -5.1 °C -11.2 °C 46% 1020.3 hPa 16.1 km WSW 13.0 km/h / 3.6 m/s - N/A   Clear
10:55 AM 0.8 °C -3.0 °C -9.9 °C 45% 1020.8 hPa 16.1 km WSW 13.0 km/h / 3.6 m/s - N/A   Clear
11:55 AM 2.7 °C -0.3 °C -8.7 °C 43% 1020.4 hPa 16.1 km SW 11.1 km/h / 3.1 m/s - N/A   Clear
12:55 PM 4.9 °C 2.0 °C -7.6 °C 40% 1019.7 hPa 16.1 km SW 13.0 km/h / 3.6 m/s - N/A   Clear
1:55 PM 6.1 °C 3.2 °C -6.9 °C 39% 1019.3 hPa 16.1 km SW 14.8 km/h / 4.1 m/s - N/A   Clear
2:55 PM 6.3 °C 4.0 °C -6.8 °C 39% 1019.0 hPa 16.1 km West 11.1 km/h / 3.1 m/s - N/A   Clear
3:55 PM 5.7 °C 3.0 °C -6.7 °C 41% 1019.4 hPa 16.1 km WSW 13.0 km/h / 3.6 m/s - N/A   Clear
4:55 PM 1.6 °C -2.7 °C -6.1 °C 57% 1019.7 hPa 16.1 km South 16.7 km/h / 4.6 m/s - N/A   Clear
5:55 PM -0.4 °C -5.2 °C -6.4 °C 64% 1020.4 hPa 16.1 km SSW 16.7 km/h / 4.6 m/s - N/A   Clear
6:55 PM -1.5 °C -5.4 °C -6.7 °C 68% 1021.0 hPa 16.1 km SSW 11.1 km/h / 3.1 m/s - N/A   Clear
7:55 PM -1.7 °C -5.6 °C -7.0 °C 68% 1021.5 hPa 16.1 km SSW 11.1 km/h / 3.1 m/s - N/A   Clear
8:55 PM -3.0 °C -8.0 °C -7.2 °C 73% 1021.7 hPa 16.1 km SSW 14.8 km/h / 4.1 m/s - N/A   Clear
9:55 PM -2.0 °C -6.4 °C -7.3 °C 67% 1021.8 hPa 16.1 km SSW 13.0 km/h / 3.6 m/s - N/A   Clear
10:55 PM -3.0 °C -8.0 °C -7.5 °C 71% 1022.2 hPa 16.1 km South 14.8 km/h / 4.1 m/s - N/A   Clear
11:55 PM -2.7 °C -6.8 °C -7.2 °C 72% 1022.6 hPa 16.1 km South 11.1 km/h / 3.1 m/s - N/A   Clear